Regional Weather Roundup
Issued by NWS

Home | Current Version | Previous Version | Text Only | Print | Product List | Glossary Off
Versions: 1 2 3 4 5 6 7 8 9 10 11 12 13 14 15 16 17 18 19 20 21 22 23 24 25 26 27 28 29 30 31 32 33 34 35 36 37 38 39 40 41 42 43 44 45 46 47 48 49 50

000
ASUS43 KLSX 052259
RWRMO

WEATHER SUMMARY FOR MISSOURI
NATIONAL WEATHER SERVICE SPRINGFIELD MO
600 PM CDT TUE MAY 05 2015

NOTE: "FAIR" INDICATES FEW OR NO CLOUDS BELOW 12,000 FEET WITH NO
       SIGNIFICANT WEATHER AND/OR OBSTRUCTIONS TO VISIBILITY.
       CURRENT SKY AND/OR WEATHER CONDITIONS ARE NOT AVAILABLE FOR
       CHILLICOTHE AND FARMINGTON.

MOZ001>031-035>038-043-044-053-054-060000-
...NORTHERN AND WESTERN MISSOURI...

CITY           SKY/WX    TMP DP  RH WIND       PRES   REMARKS
KANSAS CTY INT CLOUDY    79  59  50 SE14      29.99F
KANSAS C DTWN  CLOUDY    79  59  50 SE12      29.99F
LEE`S SUMMIT   CLOUDY    72  61  68 SE7       30.02F
ST JOSEPH      CLOUDY    79  57  46 SE8       29.99F
CHILLICOTHE      N/A     80  57  45 S6        30.03F
KIRKSVILLE     MOSUNNY   78  60  53 S9        30.06F

$$
MOZ066>068-077>081-088>096-101>105-060000-
...SOUTHWEST MISSOURI...

CITY           SKY/WX    TMP DP  RH WIND       PRES   REMARKS
SPRINGFIELD    MOSUNNY   78  53  41 S22       30.05S
JOPLIN         PTSUNNY   77  60  55 SE12      30.01F

$$
MOZ032>034-039>042-045>050-055>058-069>072-060000-
...CENTRAL MISSOURI...

CITY           SKY/WX    TMP DP  RH WIND       PRES   REMARKS
COLUMBIA       PTSUNNY   74  64  71 E8        30.07F
JEFFERSON CITY PTSUNNY   76  65  68 E7        30.06F
ROLLA          MOSUNNY   79  56  45 S16G23    30.08S
SEDALIA        PTSUNNY   73  59  61 W7        30.06R
OSAGE BEACH    MOSUNNY   81  55  41 S10G16    30.06S

$$
MOZ051-052-059>065-060000-
...EAST CENTRAL MISSOURI...

CITY           SKY/WX    TMP DP  RH WIND       PRES   REMARKS
ST LOUIS INTL  PTSUNNY   81  57  43 S8        30.11S
SPIRIT OF STL  PTSUNNY   80  57  45 VRB6      30.08F
ST CHARLES     PTSUNNY   80  58  46 S13       30.08F

$$
MOZ072>076-082>087-097>100-106>115-060000-
...SOUTH CENTRAL AND SOUTHEAST MISSOURI...

CITY           SKY/WX    TMP DP  RH WIND       PRES   REMARKS
CAPE GIRARDEAU PTSUNNY   76  63  64 NE7       30.12F
FARMINGTON     MOSUNNY   81  57  44 S7        30.15F
POPLAR BLUFF   MOSUNNY   81  55  40 S8        30.09F
WEST PLAINS    SUNNY     78  54  43 S12       30.12S

$$



USA.gov is the U.S. government's official web portal to all federal, state and local government web resources and services.